Time,TemperatureF,DewpointF,PressureIn,WindDirection,WindDirectionDegrees,WindSpeedMPH,WindSpeedGustMPH,Humidity,HourlyPrecipIn,Conditions,Clouds,dailyrainin,SoftwareType,DateUTC
2013-04-09 00:00:00,43.5,32.1,30.06,NNW,340,0.0,0.0,64,0.00,,,0.00,WeatherDisplay:10.37,2013-04-09 04:00:00,
2013-04-09 00:10:00,43.5,32.5,30.07,East,98,0.0,0.0,65,0.00,,,0.00,WeatherDisplay:10.37,2013-04-09 04:10:00,
2013-04-09 00:20:00,43.4,32.4,30.06,NE,42,0.0,0.0,65,0.00,,,0.00,WeatherDisplay:10.37,2013-04-09 04:20:00,
2013-04-09 00:30:00,43.4,32.4,30.05,NNE,23,0.0,0.0,65,0.00,,,0.00,WeatherDisplay:10.37,2013-04-09 04:30:00,
2013-04-09 00:40:00,43.4,32.8,30.05,NNE,31,0.0,0.0,66,0.00,,,0.00,WeatherDisplay:10.37,2013-04-09 04:40:00,
2013-04-09 00:50:00,43.3,32.7,30.05,NNE,14,0.0,0.0,66,0.00,,,0.00,WeatherDisplay:10.37,2013-04-09 04:50:00,
2013-04-09 01:00:00,43.4,32.8,30.04,ENE,59,0.0,0.0,66,0.00,,,0.00,WeatherDisplay:10.37,2013-04-09 05:00:00,
2013-04-09 01:10:00,43.3,33.1,30.04,NE,55,0.0,0.0,67,0.00,,,0.00,WeatherDisplay:10.37,2013-04-09 05:10:00,
2013-04-09 01:20:00,43.3,33.1,30.03,NNE,32,0.0,0.0,67,0.00,,,0.00,WeatherDisplay:10.37,2013-04-09 05:20:00,
2013-04-09 01:30:00,43.3,33.5,30.03,NE,42,0.0,0.0,68,0.00,,,0.00,WeatherDisplay:10.37,2013-04-09 05:30:00,
2013-04-09 01:40:00,43.3,33.5,30.02,NNE,29,0.0,0.0,68,0.00,,,0.00,WeatherDisplay:10.37,2013-04-09 05:40:00,
2013-04-09 01:50:00,43.3,33.5,30.01,NE,34,0.0,0.0,68,0.00,,,0.00,WeatherDisplay:10.37,2013-04-09 05:50:00,
2013-04-09 02:00:00,43.2,33.3,30.00,East,90,0.0,0.0,68,0.00,,,0.00,WeatherDisplay:10.37,2013-04-09 06:00:00,
2013-04-09 02:10:00,43.2,33.3,30.00,ENE,63,0.0,0.0,68,0.00,,,0.00,WeatherDisplay:10.37,2013-04-09 06:10:00,
2013-04-09 02:20:00,43.3,33.8,30.01,NE,45,0.0,0.0,69,0.00,,,0.00,WeatherDisplay:10.37,2013-04-09 06:20:00,
2013-04-09 02:30:00,43.3,33.8,29.99,NE,52,0.0,0.0,69,0.00,,,0.00,WeatherDisplay:10.37,2013-04-09 06:30:00,
2013-04-09 02:40:00,43.3,33.8,29.99,NNW,339,0.0,0.0,69,0.00,,,0.00,WeatherDisplay:10.37,2013-04-09 06:40:00,
2013-04-09 02:50:00,43.3,33.8,29.99,NE,39,0.0,0.0,69,0.00,,,0.00,WeatherDisplay:10.37,2013-04-09 06:50:00,
2013-04-09 03:10:00,43.2,34.0,29.97,NE,48,0.0,0.0,70,0.00,,,0.00,WeatherDisplay:10.37,2013-04-09 07:10:00,
2013-04-09 03:20:00,43.2,34.0,29.97,ENE,65,0.0,0.0,70,0.00,,,0.00,WeatherDisplay:10.37,2013-04-09 07:20:00,
2013-04-09 03:30:00,43.3,34.2,29.96,ENE,58,0.0,0.0,70,0.00,,,0.00,WeatherDisplay:10.37,2013-04-09 07:30:00,
2013-04-09 03:40:00,43.3,34.2,29.99,SE,136,0.0,0.0,70,0.00,,,0.00,WeatherDisplay:10.37,2013-04-09 07:40:00,
2013-04-09 03:50:00,43.3,34.2,29.99,SW,215,0.0,0.0,70,0.00,,,0.00,WeatherDisplay:10.37,2013-04-09 07:50:00,
2013-04-09 04:00:00,43.5,34.4,29.99,WSW,240,0.0,0.0,70,0.00,,,0.00,WeatherDisplay:10.37,2013-04-09 08:00:00,
2013-04-09 04:10:00,43.5,34.7,29.99,WSW,240,0.0,0.0,71,0.00,,,0.00,WeatherDisplay:10.37,2013-04-09 08:10:00,
2013-04-09 04:20:00,43.4,34.6,29.97,West,269,0.0,0.0,71,0.00,,,0.00,WeatherDisplay:10.37,2013-04-09 08:20:00,
2013-04-09 04:30:00,43.3,34.5,29.96,West,262,0.0,0.0,71,0.00,,,0.00,WeatherDisplay:10.37,2013-04-09 08:30:00,
2013-04-09 04:40:00,43.0,34.9,30.02,WSW,246,0.0,0.0,73,0.00,,,0.00,WeatherDisplay:10.37,2013-04-09 08:40:00,
2013-04-09 04:50:00,42.4,35.1,29.95,NNE,23,0.0,0.0,75,0.00,,,0.00,WeatherDisplay:10.37,2013-04-09 08:50:00,
2013-04-09 05:00:00,41.9,34.9,29.93,ENE,58,0.0,0.0,76,0.00,,,0.00,WeatherDisplay:10.37,2013-04-09 09:00:00,
2013-04-09 05:10:00,41.7,35.0,29.92,NE,56,0.0,0.0,77,0.00,,,0.00,WeatherDisplay:10.37,2013-04-09 09:10:00,
2013-04-09 05:20:00,41.5,35.2,29.91,East,90,0.0,0.0,78,0.00,,,0.00,WeatherDisplay:10.37,2013-04-09 09:20:00,
2013-04-09 05:30:00,41.4,35.0,29.91,NE,53,0.0,0.0,78,0.00,,,0.00,WeatherDisplay:10.37,2013-04-09 09:30:00,
2013-04-09 05:40:00,41.4,35.0,29.91,East,86,0.0,0.0,78,0.00,,,0.00,WeatherDisplay:10.37,2013-04-09 09:40:00,
2013-04-09 05:50:00,41.4,35.3,29.92,SSW,194,0.0,0.0,79,0.00,,,0.00,WeatherDisplay:10.37,2013-04-09 09:50:00,
2013-04-09 06:00:00,41.4,35.3,29.93,SSW,196,0.0,0.0,79,0.00,,,0.00,WeatherDisplay:10.37,2013-04-09 10:00:00,
2013-04-09 06:10:00,41.4,35.3,29.94,South,172,0.0,0.0,79,0.00,,,0.00,WeatherDisplay:10.37,2013-04-09 10:10:00,
2013-04-09 06:20:00,41.0,35.0,29.94,South,172,0.0,0.0,79,0.00,,,0.00,WeatherDisplay:10.37,2013-04-09 10:20:00,
2013-04-09 06:30:00,40.6,34.6,29.94,South,172,0.0,0.0,79,0.00,,,0.00,WeatherDisplay:10.37,2013-04-09 10:30:00,
2013-04-09 06:40:00,40.6,34.6,29.93,South,172,0.0,0.0,79,0.00,,,0.00,WeatherDisplay:10.37,2013-04-09 10:40:00,
2013-04-09 06:50:00,40.5,34.8,29.92,South,172,0.0,0.0,80,0.00,,,0.00,WeatherDisplay:10.37,2013-04-09 10:50:00,
2013-04-09 07:00:00,40.5,34.8,29.92,South,172,0.0,0.0,80,0.00,,,0.00,WeatherDisplay:10.37,2013-04-09 11:00:00,
2013-04-09 07:10:00,40.2,34.5,29.92,South,172,0.0,0.0,80,0.00,,,0.00,WeatherDisplay:10.37,2013-04-09 11:10:00,
2013-04-09 07:20:00,40.5,34.8,29.91,SE,139,0.0,0.0,80,0.00,,,0.00,WeatherDisplay:10.37,2013-04-09 11:20:00,
2013-04-09 07:30:00,40.6,35.3,29.92,East,82,0.0,0.0,81,0.00,,,0.00,WeatherDisplay:10.37,2013-04-09 11:30:00,
2013-04-09 07:40:00,41.0,35.6,29.91,NE,36,0.0,0.0,81,0.00,,,0.00,WeatherDisplay:10.37,2013-04-09 11:40:00,
2013-04-09 07:50:00,41.4,36.0,29.91,NNW,341,0.0,0.0,81,0.00,,,0.00,WeatherDisplay:10.37,2013-04-09 11:50:00,
2013-04-09 08:10:00,41.9,36.8,29.91,NNW,333,0.0,0.0,82,0.00,,,0.00,WeatherDisplay:10.37,2013-04-09 12:10:00,
2013-04-09 08:20:00,41.9,36.8,29.91,NW,322,0.0,0.0,82,0.00,,,0.00,WeatherDisplay:10.37,2013-04-09 12:20:00,
2013-04-09 08:30:00,42.3,37.2,29.90,NNE,30,0.0,0.0,82,0.00,,,0.00,WeatherDisplay:10.37,2013-04-09 12:30:00,
2013-04-09 08:40:00,42.4,37.3,29.89,NE,46,0.0,0.0,82,0.00,,,0.00,WeatherDisplay:10.37,2013-04-09 12:40:00,
2013-04-09 08:50:00,42.8,37.7,29.89,ENE,78,0.0,0.0,82,0.00,,,0.00,WeatherDisplay:10.37,2013-04-09 12:50:00,
2013-04-09 09:00:00,43.0,37.9,29.88,NNE,27,0.0,0.0,82,0.00,,,0.00,WeatherDisplay:10.37,2013-04-09 13:00:00,
2013-04-09 09:10:00,43.3,38.2,29.88,North,1,0.0,0.0,82,0.00,,,0.00,WeatherDisplay:10.37,2013-04-09 13:10:00,
2013-04-09 09:20:00,43.3,38.2,29.89,NNE,15,0.0,0.0,82,0.00,,,0.00,WeatherDisplay:10.37,2013-04-09 13:20:00,
2013-04-09 09:30:00,43.3,38.1,29.89,West,268,0.0,0.0,82,0.00,,,0.00,WeatherDisplay:10.37,2013-04-09 13:30:00,
2013-04-09 09:40:00,43.5,38.4,29.90,SSW,205,0.0,0.0,82,0.00,,,0.00,WeatherDisplay:10.37,2013-04-09 13:40:00,
2013-04-09 09:50:00,43.8,39.0,29.90,SSW,212,0.0,0.0,83,0.00,,,0.00,WeatherDisplay:10.37,2013-04-09 13:50:00,
2013-04-09 10:00:00,44.2,39.4,29.89,South,176,0.0,0.0,83,0.00,,,0.00,WeatherDisplay:10.37,2013-04-09 14:00:00,
2013-04-09 10:10:00,44.6,39.8,29.91,SSW,195,0.0,0.0,83,0.00,,,0.00,WeatherDisplay:10.37,2013-04-09 14:10:00,
2013-04-09 10:30:00,45.4,40.2,29.91,SSW,211,0.0,0.0,82,0.00,,,0.00,WeatherDisplay:10.37,2013-04-09 14:30:00,
2013-04-09 10:40:00,45.7,40.5,29.91,SW,230,0.0,0.0,82,0.00,,,0.00,WeatherDisplay:10.37,2013-04-09 14:40:00,
2013-04-09 10:50:00,46.0,40.9,29.90,SSW,201,0.0,0.0,82,0.00,,,0.00,WeatherDisplay:10.37,2013-04-09 14:50:00,
2013-04-09 11:00:00,46.2,41.0,29.90,SW,229,0.0,0.0,82,0.00,,,0.00,WeatherDisplay:10.37,2013-04-09 15:00:00,
2013-04-09 11:10:00,46.6,41.1,29.89,South,182,0.0,0.0,81,0.00,,,0.00,WeatherDisplay:10.37,2013-04-09 15:10:00,
2013-04-09 11:20:00,46.6,41.4,29.89,SSE,154,0.0,0.0,82,0.00,,,0.00,WeatherDisplay:10.37,2013-04-09 15:20:00,
2013-04-09 11:30:00,47.8,42.6,29.90,SE,145,0.0,0.0,82,0.00,,,0.00,WeatherDisplay:10.37,2013-04-09 15:30:00,
2013-04-09 11:40:00,48.8,43.6,29.90,SE,141,1.0,0.0,82,0.00,,,0.00,WeatherDisplay:10.37,2013-04-09 15:40:00,
2013-04-09 11:50:00,50.3,44.7,29.90,South,172,0.0,0.0,81,0.00,,,0.00,WeatherDisplay:10.37,2013-04-09 15:50:00,
2013-04-09 12:00:00,51.6,45.6,29.90,SSE,160,2.0,0.0,80,0.00,,,0.00,WeatherDisplay:10.37,2013-04-09 16:00:00,
2013-04-09 12:10:00,52.7,46.0,29.90,SSE,148,0.0,0.0,78,0.00,,,0.00,WeatherDisplay:10.37,2013-04-09 16:10:00,
2013-04-09 12:20:00,53.4,46.4,29.89,South,177,1.0,0.0,77,0.00,,,0.00,WeatherDisplay:10.37,2013-04-09 16:20:00,
2013-04-09 12:30:00,54.2,46.8,29.89,SSE,156,0.0,0.0,76,0.00,,,0.00,WeatherDisplay:10.37,2013-04-09 16:30:00,
2013-04-09 12:40:00,55.8,47.6,29.89,SW,215,3.0,0.0,74,0.00,,,0.00,WeatherDisplay:10.37,2013-04-09 16:40:00,
2013-04-09 12:50:00,56.5,47.5,29.90,SW,229,1.0,0.0,72,0.00,,,0.00,WeatherDisplay:10.37,2013-04-09 16:50:00,
2013-04-09 13:00:00,56.7,47.4,29.91,SSW,207,2.0,0.0,71,0.00,,,0.00,WeatherDisplay:10.37,2013-04-09 17:00:00,
2013-04-09 13:10:00,56.0,46.4,29.91,SW,217,0.0,0.0,70,0.00,,,0.00,WeatherDisplay:10.37,2013-04-09 17:10:00,
2013-04-09 13:20:00,55.8,46.1,29.91,SW,225,2.0,0.0,70,0.00,,,0.00,WeatherDisplay:10.37,2013-04-09 17:20:00,
2013-04-09 13:30:00,55.9,46.3,29.93,WSW,238,6.0,0.0,70,0.00,,,0.00,WeatherDisplay:10.37,2013-04-09 17:30:00,
2013-04-09 13:40:00,56.1,45.7,29.92,SSW,203,0.0,0.0,68,0.00,,,0.00,WeatherDisplay:10.37,2013-04-09 17:40:00,
2013-04-09 13:50:00,56.8,46.8,29.92,SSE,163,6.0,0.0,69,0.00,,,0.00,WeatherDisplay:10.37,2013-04-09 17:50:00,
2013-04-09 14:00:00,57.4,46.1,29.92,SE,133,2.0,0.0,66,0.00,,,0.00,WeatherDisplay:10.37,2013-04-09 18:00:00,
2013-04-09 14:10:00,57.6,44.6,29.92,SE,137,9.0,0.0,62,0.00,,,0.00,WeatherDisplay:10.37,2013-04-09 18:10:00,
2013-04-09 14:20:00,57.4,44.5,29.93,SE,128,7.0,0.0,62,0.00,,,0.00,WeatherDisplay:10.37,2013-04-09 18:20:00,
2013-04-09 14:30:00,57.6,43.8,29.93,South,175,8.0,0.0,60,0.00,,,0.00,WeatherDisplay:10.37,2013-04-09 18:30:00,
2013-04-09 14:40:00,57.6,43.3,29.93,SE,128,2.0,0.0,59,0.00,,,0.00,WeatherDisplay:10.37,2013-04-09 18:40:00,
2013-04-09 14:50:00,57.6,43.3,29.93,SE,128,5.0,0.0,59,0.00,,,0.00,WeatherDisplay:10.37,2013-04-09 18:50:00,
2013-04-09 15:00:00,57.4,43.2,29.93,SE,128,5.0,0.0,59,0.00,,,0.00,WeatherDisplay:10.37,2013-04-09 19:00:00,
2013-04-09 15:10:00,56.9,42.7,29.92,SE,134,6.0,0.0,59,0.00,,,0.00,WeatherDisplay:10.37,2013-04-09 19:10:00,
2013-04-09 15:20:00,56.8,42.7,29.93,SE,131,2.0,0.0,59,0.00,,,0.00,WeatherDisplay:10.37,2013-04-09 19:20:00,
2013-04-09 15:30:00,56.8,43.1,29.94,SE,129,2.0,0.0,60,0.00,,,0.00,WeatherDisplay:10.37,2013-04-09 19:30:00,
2013-04-09 15:40:00,57.4,43.2,29.95,SE,131,9.0,0.0,59,0.00,,,0.00,WeatherDisplay:10.37,2013-04-09 19:40:00,
2013-04-09 15:50:00,57.7,43.1,29.94,SE,138,7.0,0.0,58,0.00,,,0.00,WeatherDisplay:10.37,2013-04-09 19:50:00,
2013-04-09 16:00:00,57.9,42.8,29.94,SE,130,3.0,0.0,57,0.00,,,0.00,WeatherDisplay:10.37,2013-04-09 20:00:00,
2013-04-09 16:20:00,57.9,42.3,29.95,SW,217,5.0,0.0,56,0.00,,,0.00,WeatherDisplay:10.37,2013-04-09 20:20:00,
2013-04-09 16:30:00,57.7,42.1,29.94,SSW,208,3.0,0.0,56,0.00,,,0.00,WeatherDisplay:10.37,2013-04-09 20:30:00,
2013-04-09 16:40:00,57.6,42.0,29.93,SSW,193,2.0,0.0,56,0.00,,,0.00,WeatherDisplay:10.37,2013-04-09 20:40:00,
2013-04-09 16:50:00,57.7,41.7,29.94,SSW,211,3.0,0.0,55,0.00,,,0.00,WeatherDisplay:10.37,2013-04-09 20:50:00,
2013-04-09 17:00:00,57.9,42.3,29.94,WSW,242,3.0,0.0,56,0.00,,,0.00,WeatherDisplay:10.37,2013-04-09 21:00:00,
2013-04-09 17:10:00,57.9,41.3,29.95,WSW,242,1.0,0.0,54,0.00,,,0.00,WeatherDisplay:10.37,2013-04-09 21:10:00,
2013-04-09 17:20:00,57.8,41.8,29.95,SSW,211,2.0,0.0,55,0.00,,,0.00,WeatherDisplay:10.37,2013-04-09 21:20:00,
2013-04-09 17:30:00,58.1,42.5,29.96,SE,129,3.0,0.0,56,0.00,,,0.00,WeatherDisplay:10.37,2013-04-09 21:30:00,
2013-04-09 17:40:00,58.1,41.5,29.97,SE,128,1.0,0.0,54,0.00,,,0.00,WeatherDisplay:10.37,2013-04-09 21:40:00,
2013-04-09 17:50:00,57.9,41.4,29.99,SE,128,2.0,0.0,54,0.00,,,0.00,WeatherDisplay:10.37,2013-04-09 21:50:00,
2013-04-09 18:00:00,57.9,41.4,29.99,South,172,0.0,0.0,54,0.00,,,0.00,WeatherDisplay:10.37,2013-04-09 22:00:00,
2013-04-09 18:10:00,57.7,41.2,29.99,WSW,242,1.0,0.0,54,0.00,,,0.00,WeatherDisplay:10.37,2013-04-09 22:10:00,
2013-04-09 18:20:00,57.6,42.0,29.99,WSW,241,0.0,0.0,56,0.00,,,0.00,WeatherDisplay:10.37,2013-04-09 22:20:00,
2013-04-09 18:30:00,57.3,43.5,29.99,SW,222,0.0,0.0,60,0.00,,,0.00,WeatherDisplay:10.37,2013-04-09 22:30:00,
2013-04-09 18:40:00,56.8,44.4,29.99,WSW,256,0.0,0.0,63,0.00,,,0.00,WeatherDisplay:10.37,2013-04-09 22:40:00,
2013-04-09 18:50:00,56.8,43.1,29.99,WSW,253,0.0,0.0,60,0.00,,,0.00,WeatherDisplay:10.37,2013-04-09 22:50:00,
2013-04-09 19:00:00,56.1,42.4,29.99,West,279,0.0,0.0,60,0.00,,,0.00,WeatherDisplay:10.37,2013-04-09 23:00:00,
2013-04-09 19:10:00,55.4,40.9,29.99,WSW,252,0.0,0.0,58,0.00,,,0.00,WeatherDisplay:10.37,2013-04-09 23:10:00,
2013-04-09 19:20:00,54.5,40.5,29.99,WSW,240,1.0,0.0,59,0.00,,,0.00,WeatherDisplay:10.37,2013-04-09 23:20:00,
2013-04-09 19:30:00,53.8,39.4,29.99,West,268,1.0,0.0,58,0.00,,,0.00,WeatherDisplay:10.37,2013-04-09 23:30:00,
2013-04-09 19:40:00,53.1,39.1,29.99,West,277,1.0,0.0,59,0.00,,,0.00,WeatherDisplay:10.37,2013-04-09 23:40:00,
2013-04-09 19:50:00,52.3,38.9,29.99,WNW,300,0.0,0.0,60,0.00,,,0.00,WeatherDisplay:10.37,2013-04-09 23:50:00,
2013-04-09 20:00:00,51.5,38.1,30.00,West,261,0.0,0.0,60,0.00,,,0.00,WeatherDisplay:10.37,2013-04-10 00:00:00,
2013-04-09 20:10:00,51.1,38.1,29.99,West,280,0.0,0.0,61,0.00,,,0.00,WeatherDisplay:10.37,2013-04-10 00:10:00,
2013-04-09 20:20:00,50.6,38.0,30.00,West,272,0.0,0.0,62,0.00,,,0.00,WeatherDisplay:10.37,2013-04-10 00:20:00,
2013-04-09 20:30:00,50.4,38.2,30.01,West,271,0.0,0.0,63,0.00,,,0.00,WeatherDisplay:10.37,2013-04-10 00:30:00,
2013-04-09 20:40:00,50.0,37.5,30.01,West,278,0.0,0.0,62,0.00,,,0.00,WeatherDisplay:10.37,2013-04-10 00:40:00,
2013-04-09 20:50:00,49.7,38.8,30.01,WNW,285,0.0,0.0,66,0.00,,,0.00,WeatherDisplay:10.37,2013-04-10 00:50:00,
2013-04-09 21:00:00,49.5,38.2,30.02,WSW,243,0.0,0.0,65,0.00,,,0.00,WeatherDisplay:10.37,2013-04-10 01:00:00,
2013-04-09 21:10:00,48.9,38.0,30.04,WSW,240,0.0,0.0,66,0.00,,,0.00,WeatherDisplay:10.37,2013-04-10 01:10:00,
2013-04-09 21:20:00,48.2,37.4,30.03,WSW,240,0.0,0.0,66,0.00,,,0.00,WeatherDisplay:10.37,2013-04-10 01:20:00,
2013-04-09 21:30:00,47.8,37.0,30.03,WSW,240,0.0,0.0,66,0.00,,,0.00,WeatherDisplay:10.37,2013-04-10 01:30:00,
2013-04-09 21:40:00,47.6,37.1,30.02,WSW,240,0.0,0.0,67,0.00,,,0.00,WeatherDisplay:10.37,2013-04-10 01:40:00,
2013-04-09 21:50:00,47.3,37.3,30.01,WSW,240,0.0,0.0,68,0.00,,,0.00,WeatherDisplay:10.37,2013-04-10 01:50:00,
2013-04-09 22:00:00,47.1,37.1,30.02,WSW,240,0.0,0.0,68,0.00,,,0.00,WeatherDisplay:10.37,2013-04-10 02:00:00,
2013-04-09 22:10:00,46.8,36.8,30.02,WSW,240,0.0,0.0,68,0.00,,,0.00,WeatherDisplay:10.37,2013-04-10 02:10:00,
2013-04-09 22:20:00,46.8,37.1,30.03,WSW,240,0.0,0.0,69,0.00,,,0.00,WeatherDisplay:10.37,2013-04-10 02:20:00,
2013-04-09 22:30:00,46.6,37.0,30.03,SW,223,0.0,0.0,69,0.00,,,0.00,WeatherDisplay:10.37,2013-04-10 02:30:00,
2013-04-09 22:40:00,46.1,36.9,30.03,SW,218,0.0,0.0,70,0.00,,,0.00,WeatherDisplay:10.37,2013-04-10 02:40:00,
2013-04-09 22:50:00,46.0,36.8,30.00,West,264,0.0,0.0,70,0.00,,,0.00,WeatherDisplay:10.37,2013-04-10 02:50:00,
2013-04-09 23:00:00,45.9,37.0,30.01,WNW,285,0.0,0.0,71,0.00,,,0.00,WeatherDisplay:10.37,2013-04-10 03:00:00,
2013-04-09 23:10:00,45.8,36.9,30.00,WNW,285,0.0,0.0,71,0.00,,,0.00,WeatherDisplay:10.37,2013-04-10 03:10:00,
2013-04-09 23:20:00,45.7,36.8,29.99,WNW,285,0.0,0.0,71,0.00,,,0.00,WeatherDisplay:10.37,2013-04-10 03:20:00,
2013-04-09 23:30:00,45.7,37.2,29.99,WNW,285,0.0,0.0,72,0.00,,,0.00,WeatherDisplay:10.37,2013-04-10 03:30:00,
2013-04-09 23:40:00,45.5,37.0,29.99,WNW,285,0.0,0.0,72,0.00,,,0.00,WeatherDisplay:10.37,2013-04-10 03:40:00,
2013-04-09 23:50:00,45.4,36.9,29.97,WNW,285,0.0,0.0,72,0.00,,,0.00,WeatherDisplay:10.37,2013-04-10 03:50:00,